Location: Astronomy Club of Akron Observatory
(40.9700°N, 81.5606°W)
Time: 03:59:29
(UTC-04:00)

ISS - Pass Details

Date: 20 July 2018
Orbit: 402 x 408 km, 51.6° (Epoch: 19 July)

Event Time Altitude Azimuth Distance (km) Brightness Sun altitude
Rises 00:47:44 0° 285° (WNW) 2,322 0.4 -27.5°
Reaches altitude 10° 00:50:26 10° 309° (NW) 1,464 -0.4 -27.6°
Maximum altitude 00:52:29 15° 348° (NNW) 1,185 -0.6 -27.7°
Drops below altitude 10° 00:54:33 10° 27° (NNE) 1,468 -0.4 -27.7°
Sets 00:57:16 0° 51° (NE) 2,331 0.4 -27.8°
